Regional Weather Roundup
Issued by NWS Bismarck, ND

Home | Current Version | Previous Version | Text Only | Print | Product List | Glossary On
Versions: 1 2 3 4 5 6 7 8 9 10 11 12 13 14 15 16 17 18 19 20 21 22 23 24 25 26 27 28 29 30 31 32 33 34 35 36 37 38 39 40 41 42 43 44 45 46 47 48 49 50
000
ASUS43 KBIS 311610
RWRBIS

NWR BROADCAST TEXT
NATIONAL WEATHER SERVICE BISMARCK ND
1000 AM CST SAT JAN 31 2015

NOTE: "FAIR" INDICATES FEW OR NO CLOUDS BELOW 12,000 FEET WITH NO
SIGNIFICANT WEATHER AND/OR OBSTRUCTIONS TO VISIBILITY.


CITY           SKY/WX    TMP DP  RH WIND       PRES   REMARKS
WILLISTON      CLOUDY    13   7  77 E20       30.26R WCI  -5
MINOT          LGT SNOW   6   0  76 NE14      30.35S WCI -11
MINOT AFB      LGT SNOW   5   1  85 NE16      30.37R FOG     WCI -14
BISMARCK       LGT SNOW  13   9  84 NE16      30.28R FOG     WCI  -3
DICKINSON      FOG       20  17  88 E16G24    30.11S VSB 3/4 WCI   6
GARRISON         N/A      8   0  69 E15       30.30R WCI  -9
HETTINGER ARPT FOG       20  18  92 E16       30.10F VSB 1/2 WCI   6
JAMESTOWN      MOSUNNY   10   3  73 NE17      30.31R WCI  -8
TIOGA          LGT SNOW   5   5 100 E18G24    30.30R WCI -15
$$

CITY           SKY/WX    TMP DP  RH WIND       PRES   REMARKS
GRAND FORKS    CLOUDY     4  -6  63 N17G25    30.45R WCI -16
GRAND FORKS AF CLOUDY     2  -7  66 N17G26    30.45R WCI -18
DEVILS LAKE    CLOUDY     1  -8  66 NE16      30.38R WCI -18
FARGO          SUNNY     10  -1  61 N21       30.36R WCI  -9
$$

CITY           SKY/WX    TMP DP  RH WIND       PRES   REMARKS
ABERDEEN       CLOUDY    18  12  77 NE20      30.25R WCI   2
MOBRIDGE       CLOUDY    23  19  85 NE15      30.16R WCI  10
BUFFALO          N/A     23  21  92 E20       29.96S WCI   8
RAPID CITY     CLOUDY    27  25  92 E9        30.02R WCI  18
GLASGOW        SNOW      19  15  84 E22G28    30.13S VSB 1/2 WCI   2
SIDNEY         CLOUDY    19  16  86 NE16G22   30.20R WCI   5
WOLF POINT     LGT SNOW  20  16  84 NE28G33   30.17R FOG     WCI   2
GLENDIVE       CLOUDY    21  19  93 E17       30.09S WCI   7
MILES CITY     MOSUNNY   26  23  88 NE14      29.98R WCI  14
BAKER          FOG       22  21  96 E20G29    30.03S VSB 1/2 WCI   7
$$

CITY           SKY/WX    TMP DP  RH WIND       PRES   REMARKS
BILLINGS       CLOUDY    31  20  63 SW14      29.96R
GREAT FALLS    SNOW      21  19  93 N16       30.14R VSB 1/4 WCI   7
REGINA         PTSUNNY    1  -6  71 NE17      30.42R WCI -19
ESTEVAN        LGT SNOW   5   0  78 E17       30.36R DRFTSNOWWCI -14
$$



USA.gov is the U.S. government's official web portal to all federal, state and local government web resources and services.